#timestamp,LO_Frequency,Hit,StdDev 
1561276815.4,286046997.2,N
1561276835.2,286046998.9,N
1561276855.0,286046999.1,N
1561276855.9,286046999.1,N
1561276875.8,286047000.5,N
1561276895.6,286047001.4,N
1561276915.4,286047003.9,N
1561276935.3,286047002.8,N
1561276955.1,286047000.0,N
1561276975.8,286047001.6,N
1561276995.7,286047000.1,N
1561277015.5,286046999.8,N
1561277035.3,286047002.4,N
1561277055.2,286047004.2,N
1561277075.0,286047003.2,N
1561277075.9,286047003.2,N
1561277095.7,286047001.4,N
1561277115.6,286047002.0,N
1561277135.4,286047000.4,N
1561277155.2,286046999.3,N
1561277175.1,286046996.6,N
1561277176.0,286046996.6,N
1561277195.8,286046999.2,N
1561277215.6,286046996.5,N
1561277235.5,286046997.3,N
1561277255.3,286046995.3,N
1561277275.1,286046998.0,N
1561277295.9,286046994.9,N
1561277315.7,286046997.7,N
1561277335.5,286046996.0,N
1561277355.4,286046996.0,N
1561277375.2,286046994.9,N
1561277395.0,286046995.3,N
1561277395.9,286046995.3,N
1561277415.8,286046997.8,N
1561277435.6,286046997.0,N
1561277455.4,286046999.3,N
1561277475.3,286046999.6,N
1561277495.1,286046999.1,N
1561277496.0,286046999.1,N
1561277515.8,286046999.4,N
1561277535.7,286047000.9,N
1561277555.5,286047001.2,N
1561277575.3,286047000.4,N
1561277595.2,286047000.0,N
1561277615.9,286047000.0,N
1561277635.7,286047002.6,N
1561277655.6,286047000.8,N
1561277675.4,286046999.5,N
1561277695.2,286046996.8,N
1561277715.1,286046996.5,N
1561277716.0,286046996.5,N
1561277735.8,286046999.1,N
1561277755.6,286046999.3,N
1561277775.5,286046996.8,N
1561277795.3,286046998.6,N
1561277815.1,286046997.8,N
1561277835.9,286046993.8,Y
1561277855.7,286046997.9,P
1561277875.5,286046996.8,P
1561277895.4,286046996.6,P
1561277915.2,286046999.2,N
1561277935.0,286046993.7,Y
1561277935.9,286046993.7,P
1561277955.8,286046996.3,N
1561277975.6,286046992.6,P
1561277995.4,286046989.5,Y
1561278015.3,286046990.1,P
1561278035.1,286046989.1,P
1561278055.8,286046989.7,P
1561278075.7,286046986.9,Y
1561278095.5,286046996.8,P
1561278115.3,286046998.0,N
1561278135.2,286046995.0,N
1561278155.9,286046998.0,N
1561278175.7,286046998.0,N
1561278195.6,286046997.8,N
1561278215.4,286046997.0,N
1561278235.2,286046997.0,N
1561278255.1,286046996.5,N
1561278256.0,286046996.5,N
1561278275.8,286046999.4,N
1561278295.6,286047000.8,N
1561278315.5,286046996.6,N
1561278335.3,286046996.6,N
1561278355.1,286047002.8,N
1561278375.9,286047001.8,N
1561278395.7,286047001.1,N
1561278415.5,286046997.7,N
1561278435.4,286046995.5,N
1561278455.2,286046993.6,N
1561278475.0,286046992.8,N
1561278475.9,286046992.8,N
1561278495.8,286046994.8,N
1561278515.6,286046993.0,N
1561278535.4,286046995.9,N
1561278555.3,286046992.4,N
1561278575.1,286046990.2,Y
1561278576.0,286046990.2,P
1561278595.8,286046993.9,N
1561278615.7,286046994.8,N
1561278635.5,286046991.7,Y
1561278655.3,286047000.4,P
1561278675.2,286047000.6,N
1561278695.9,286046998.5,N
1561278715.7,286046999.1,N
1561278735.6,286046997.0,N
1561278755.4,286047001.0,N
1561278775.2,286046998.1,N
1561278795.1,286046999.2,N
1561278796.0,286046999.2,N
1561278815.8,286046998.8,N
1561278835.6,286046998.2,N
1561278855.5,286046999.4,N
1561278875.3,286046998.0,N
1561278895.1,286046996.0,N
1561278915.9,286046996.4,N
1561278935.7,286046993.0,Y
1561278955.5,286046994.4,P
1561278975.4,286046991.7,P
1561278995.2,286046991.7,P
1561279015.0,286046994.5,N
1561279015.9,286046994.5,N
1561279035.8,286046996.1,N
1561279055.6,286046995.9,N
1561279075.4,286046995.8,N
1561279095.3,286046997.9,N
1561279115.1,286046999.0,N
1561279116.0,286046999.0,N
1561279135.8,286047000.9,N
1561279155.7,286047002.8,N
1561279175.5,286047001.5,N
1561279195.3,286047003.6,N
1561279215.2,286047005.9,N
1561279235.9,286047006.9,N
1561279255.7,286047006.5,N
1561279275.6,286047006.5,N
1561279295.4,286047008.2,N
1561279315.2,286047008.7,N
1561279335.1,286047008.4,N
1561279336.0,286047008.4,N
1561279355.8,286047008.3,N
1561279375.6,286047008.9,N
1561279395.5,286047006.3,N
1561279415.3,286047006.1,N
1561279435.1,286047008.7,N
1561279455.8,286047010.6,N
1561279475.7,286047007.7,N
1561279495.5,286047008.5,N
1561279515.3,286047006.1,N
1561279535.2,286047008.0,N
1561279555.0,286047009.5,N
1561279555.9,286047009.5,N
1561279575.7,286047009.5,N
1561279595.6,286047009.8,N
1561279615.4,286047012.3,Y
1561279635.2,286047010.8,P
1561279655.1,286047010.3,P
1561279656.0,286047010.3,P
1561279675.8,286047004.6,N
1561279695.6,286047003.2,N
1561279715.5,286047002.6,N
1561279735.3,286047002.1,N
1561279755.1,286047002.1,N
1561279775.9,286047001.5,N
1561279795.7,286047002.5,N
1561279815.5,286046999.9,N
1561279835.4,286047000.4,N
1561279855.2,286046998.1,N
1561279875.0,286047000.6,N
1561279875.9,286047000.6,N
1561279895.8,286047002.7,N
1561279915.6,286047001.1,N
1561279935.4,286047000.2,N
1561279955.3,286047002.3,N
1561279975.1,286046999.8,N
1561279995.8,286046998.1,N
1561280015.7,286047001.1,N
1561280035.5,286047000.0,N
1561280055.3,286046999.9,N
1561280075.2,286047000.0,N
1561280095.9,286046999.7,N
1561280115.7,286046999.9,N
1561280135.6,286046999.9,N
1561280155.4,286047000.1,N
1561280175.2,286047001.0,N
1561280195.1,286046998.4,N
1561280196.0,286046998.4,N
1561280215.8,286046998.6,N
1561280235.6,286046998.4,N
1561280255.5,286046998.3,N
1561280275.3,286046996.9,N
1561280295.1,286046997.0,N
1561280315.9,286046997.8,N
1561280335.7,286046996.5,N
1561280355.5,286047002.0,N
1561280375.4,286046998.6,N
1561280395.2,286046996.6,N
